User: anonymous   Login
Location: Unspecified
(43.0000°N, 0.0000°E)
Time: 06:46:43
(UTC+00:00)
Language:

First-Move - Orbit

View from above orbital plane
View from above orbital plane
View from above satellite
View from above satellite

Ground track
Ground track

The orbit data is extracted from the following two-line orbital elements,

1 39439U 13066Z   19196.84200509 +.00000281 +00000-0 +40830-4 0  9998
2 39439 097.5698 208.7131 0064023 306.5497 052.9833 14.81850359303870
Epoch (UTC): 15 July 2019 20:12:29
Eccentricity: 0.0064023
inclination: 97.5698°
perigee height: 578 km
apogee height: 668 km
right ascension of ascending node: 208.7131°
argument of perigee: 306.5497°
revolutions per day: 14.81850359
mean anomaly at epoch: 52.9833°
orbit number at epoch: 30387

The dashed part of the orbit path shows where the satellite is in the earth's shadow,  

DLR